Hourly Data Report for September 22, 2017

All times are specified in Local Standard Time (LST). Add 1 hour to adjust for Daylight Saving Time where and when it is observed.

CAPE DORSET A
NUNAVUT

64°13'49.000" N
76°31'30.000" W
48.20 m
2400637
71366
YTE

Download Data

Hourly Data (September 2017)
Hourly Data Report for September 22, 2017
Temp Definition
°C
Dew Point Temp Definition
°C
Rel Hum Definition
%
Wind Dir Definition
10's deg

Wind Spd Definition
km/h
Visibility Definition
km
Stn Press Definition
kPa
Hmdx Definition


Wind Chill Definition


Weather Definition


TIME
00:00 Legend Double Dagger 1.0 0.1 94 5 17 16.1 100.84     LegendNANA
01:00 Legend Double Dagger 1.3 -1.1 84 5 15 16.1 100.88     LegendNANA
02:00 Legend Double Dagger 0.8 -1.9 82 3 17 16.1 100.92     LegendNANA
03:00 Legend Double Dagger 0.3 -1.5 88 3 18 16.1 100.95     LegendNANA
04:00 Legend Double Dagger -0.1 -2.0 87 2 13 16.1 100.98   -4 LegendNANA
05:00 Legend Double Dagger -0.3 -2.1 88 35 9 16.1 101.01   -3 LegendNANA
06:00 Legend Double Dagger -0.4 -2.2 88 36 9 16.1 101.04   -4 LegendNANA
07:00 Legend Double Dagger -0.4 -2.0 89 30 5 16.1 101.06   -2 LegendNANA
08:00 Legend Double Dagger 0.3 -1.6 87 32 8 16.1 101.07     LegendNANA
09:00 Legend Double Dagger 1.5 -0.7 86 36 15 16.1 101.05     Rain
10:00 Legend Double Dagger 2.3 -1.1 78 4 13 16.1 101.04     Rain
11:00 Legend Double Dagger 2.8 -1.5 73 5 17 16.1 101.00     LegendNANA
12:00 Legend Double Dagger 3.4 -1.2 72 3 8 16.1 101.01     LegendNANA
13:00 Legend Double Dagger 3.9 -0.9 71 5 8 16.1 101.01     LegendNANA
14:00 Legend Double Dagger 4.2 -1.5 67 12 8 16.1 101.00     LegendNANA
15:00 Legend Double Dagger 4.4 -2.3 62 31 5 16.1 100.97     LegendNANA
16:00 Legend Double Dagger 3.3 -1.5 71 22 11 16.1 100.95     LegendNANA
17:00 Legend Double Dagger 3.2 -0.8 75 1 8 16.1 100.94     LegendNANA
18:00 Legend Double Dagger 2.5 -1.3 76 36 9 16.1 100.95     LegendNANA
19:00 Legend Double Dagger 1.8 -1.3 80 34 8 16.1 100.97     LegendNANA
20:00 Legend Double Dagger 1.1 -2.7 76 34 9 16.1 100.99     LegendNANA
21:00 Legend Double Dagger 0.4 -2.7 80 32 8 16.1 100.98     LegendNANA
22:00 Legend Double Dagger -0.3 -2.2 87 2 11 16.1 100.97   -4 LegendNANA
23:00 Legend Double Dagger -1.0 -2.4 90 1 9 16.1 100.97   -4 LegendNANA

Notes on Data Quality.

Legend

  • E = Estimated
  • M = Missing
  • NA = Not Available
  • ‡ = Partner data that is not subject to review by the National Climate Archives
Date modified: